Weather in Shchekotovo

Russia / Yaroslavl Oblast     57°28′13″N   39°34′48″E
temp.,
°C
wind,
m/s
gust,
m/s
humid.,
%
clouds,
%
prec.,
mm/h
press.,
hPa
HPBL,
m
19 june, sat
sat1900:00+17sw497625 0.0 1024136
03:00+15wsw411821 0.0 1024197
06:00+18wsw412805 0.0 1024300
09:00+23wsw586516 0.0 1023568
12:00+26wsw57528 0.0 10231488
15:00+28w465257 0.0 10221849
18:00+26w36635 0.0 1021484
21:00+21wsw33795 0.0 102134
20 june, sun
sun2000:00+19wsw37825 0.0 1022109
03:00+17wsw35785 0.0 102373
06:00+19sw36814 0.0 1023166
09:00+24sw34630 0.0 1022453
12:00+27sw44504 0.0 10221218
15:00+28sw45480 0.0 10211632
18:00+27sw34612 0.0 1020241
21:00+21sw22730 0.0 102015
21 june, mon
mon2100:00+19ssw33750 0.0 102040
03:00+18sw33851 0.0 102143
06:00+20wsw238160 0.0 102193
09:00+25ssw336822 0.0 1021486
12:00+28ssw3357100 0.0 10211180
15:00+28s445789 0.0 1021889
18:00+27s346843 0.1 1020372
21:00+22ssw3477100 0.1 102060
22 june, tue
tue2200:00+20sw34767 0.0 102150
03:00+18sw228261 0.0 102222
06:00+21sw2278100 0.0 102269
09:00+25s226887 0.0 1022367
12:00+27s335839 0.0 10221019
15:00+28s235340 0.0 10221112
18:00+28se23655 0.0 1021481
21:00+24sse22785 0.0 102113
23 june, wed
wed2300:00+21s33895 0.0 102234
03:00+20wsw33834 0.0 102236
06:00+22wsw25822 0.0 1023132
09:00+27wsw22640 0.0 1023479
12:00+30ssw22521 0.0 10221268
15:00+31s33515 0.0 10221169
18:00+29s35642 0.0 1021280
21:00+24sw23760 0.0 102122